Time+03,TemperatureF,Dew PointF,Humidity,Sea Level PressureIn,VisibilityMPH,Wind Direction,Wind SpeedMPH,Gust SpeedMPH,PrecipitationIn,Events,Conditions,WindDirDegrees,DateUTC
12:00 AM,69.8,60.8,73,30.12,-9999.0,NW,8.1,-,N/A,,Clear,320,2013-01-03 21:00:00
1:00 AM,68.0,60.8,78,30.12,-9999.0,NW,6.9,-,N/A,,Clear,320,2013-01-03 22:00:00
1:30 AM,68.0,60.8,78,30.12,-9999.0,NW,6.9,-,N/A,,Clear,310,2013-01-03 22:30:00
2:00 AM,68.0,60.8,78,30.12,-9999.0,NW,8.1,-,N/A,,Clear,310,2013-01-03 23:00:00
2:30 AM,66.2,59.0,78,30.09,-9999.0,NW,9.2,-,N/A,,Clear,310,2013-01-03 23:30:00
3:00 AM,67,59,69,30.12,6,NW,10.4,,,,,310,2013-01-04 00:00:00
3:00 AM,66.2,59.0,78,30.09,-9999.0,NW,10.4,-,N/A,,Clear,310,2013-01-04 00:00:00
3:30 AM,66.2,59.0,78,30.09,-9999.0,NW,9.2,-,N/A,,Clear,310,2013-01-04 00:30:00
4:00 AM,66.2,59.0,78,30.09,-9999.0,NW,9.2,-,N/A,,Clear,310,2013-01-04 01:00:00
4:30 AM,66.2,59.0,78,30.12,-9999.0,NW,8.1,-,N/A,,Clear,310,2013-01-04 01:30:00
5:00 AM,66.2,57.2,73,30.12,-9999.0,NW,9.2,-,N/A,,Clear,310,2013-01-04 02:00:00
5:30 AM,66.2,57.2,73,30.12,-9999.0,NW,8.1,-,N/A,,Clear,320,2013-01-04 02:30:00
6:00 AM,66.2,57.2,73,30.12,-9999.0,NW,6.9,-,N/A,,Clear,310,2013-01-04 03:00:00
6:30 AM,66.2,57.2,73,30.15,4.3,WNW,9.2,-,N/A,,Unknown,300,2013-01-04 03:30:00
7:30 AM,64.4,57.2,77,30.15,5.0,WNW,9.2,-,N/A,,Unknown,300,2013-01-04 04:30:00
8:00 AM,66.2,57.2,73,30.18,5.0,WNW,9.2,-,N/A,,Unknown,300,2013-01-04 05:00:00
8:30 AM,66.2,55.4,68,30.18,5.6,WNW,10.4,-,N/A,,Unknown,300,2013-01-04 05:30:00
9:00 AM,68,56,57,30.19,6,NW,8.1,,,,,310,2013-01-04 06:00:00
9:00 AM,68.0,57.2,68,30.18,-9999.0,NW,8.1,-,N/A,,Clear,310,2013-01-04 06:00:00
9:30 AM,68.0,55.4,64,30.18,-9999.0,NW,10.4,-,N/A,,Clear,310,2013-01-04 06:30:00
10:00 AM,69.8,55.4,60,30.18,-9999.0,NW,9.2,-,N/A,,Clear,320,2013-01-04 07:00:00
10:30 AM,69.8,55.4,60,30.15,-9999.0,NW,9.2,-,N/A,,Clear,320,2013-01-04 07:30:00
11:00 AM,71.6,55.4,57,30.15,-9999.0,NW,11.5,-,N/A,,Clear,320,2013-01-04 08:00:00
12:00 PM,71.6,53.6,53,30.12,-9999.0,NW,9.2,-,N/A,,Clear,320,2013-01-04 09:00:00
12:30 PM,73.4,53.6,50,30.09,-9999.0,NNW,10.4,-,N/A,,Clear,330,2013-01-04 09:30:00
1:00 PM,73.4,53.6,50,30.09,-9999.0,NW,10.4,-,N/A,,Clear,320,2013-01-04 10:00:00
1:30 PM,73.4,53.6,50,30.09,-9999.0,NW,10.4,-,N/A,,Clear,310,2013-01-04 10:30:00
2:00 PM,73.4,53.6,50,30.09,-9999.0,NNW,11.5,-,N/A,,Clear,330,2013-01-04 11:00:00
2:30 PM,73.4,51.8,47,30.06,-9999.0,NW,11.5,-,N/A,,Clear,320,2013-01-04 11:30:00
3:00 PM,74,51,33,30.09,6,NNW,11.5,,,,,330,2013-01-04 12:00:00
3:00 PM,73.4,50.0,44,30.06,-9999.0,NNW,11.5,-,N/A,,Clear,330,2013-01-04 12:00:00
3:30 PM,73.4,51.8,47,30.09,-9999.0,NNW,10.4,-,N/A,,Clear,330,2013-01-04 12:30:00
4:00 PM,71.6,50.0,46,30.09,-9999.0,NW,9.2,-,N/A,,Clear,320,2013-01-04 13:00:00
4:30 PM,71.6,50.0,46,30.09,-9999.0,NW,10.4,-,N/A,,Clear,320,2013-01-04 13:30:00
5:00 PM,69.8,50.0,49,30.09,-9999.0,NNW,10.4,-,N/A,,Clear,330,2013-01-04 14:00:00
5:30 PM,69.8,48.2,46,30.09,-9999.0,NW,6.9,-,N/A,,Clear,320,2013-01-04 14:30:00
6:00 PM,69.8,48.2,46,30.12,-9999.0,NW,9.2,-,N/A,,Clear,310,2013-01-04 15:00:00
7:00 PM,68.0,50.0,52,30.12,-9999.0,NW,6.9,-,N/A,,Clear,310,2013-01-04 16:00:00
7:30 PM,68.0,50.0,52,30.12,-9999.0,NW,8.1,-,N/A,,Clear,310,2013-01-04 16:30:00
8:00 PM,66.2,50.0,56,30.12,-9999.0,WNW,6.9,-,N/A,,Clear,300,2013-01-04 17:00:00
9:00 PM,66,51,49,30.13,7,NW,6.9,,,,,310,2013-01-04 18:00:00
9:00 PM,66.2,51.8,60,30.12,-9999.0,NW,6.9,-,N/A,,Clear,310,2013-01-04 18:00:00
10:00 PM,66.2,51.8,60,30.12,-9999.0,NW,6.9,-,N/A,,Clear,310,2013-01-04 19:00:00
10:30 PM,66.2,51.8,60,30.09,-9999.0,NW,6.9,-,N/A,,Clear,310,2013-01-04 19:30:00
11:00 PM,64.4,51.8,64,30.09,-9999.0,NW,6.9,-,N/A,,Clear,310,2013-01-04 20:00:00
11:30 PM,64.4,51.8,64,30.09,-9999.0,NW,5.8,-,N/A,,Clear,310,2013-01-04 20:30:00